[[{"header":{"parameterUnit":"m.s-1","parameterCategory":1,"la1":30.2991,"la2":30.254,"lo1":-89.0895,"lo2":-89.0444,"dy":0.0017,"dx":0.0017,"nx":28,"ny":28,"refTime":"2023-10-13T09:00:00:Z","depth":0,"parameterNumber":2,"parameterNumberName":"U-component_of_WINDS"},"data":[0,0,0,0,0,0,0,0,0,0,0,0,0,0,0,0,0,0,0,0,0,0,0,0,0,0,0,0,0,0,0,0,0,0,0,0,0,0,0,0,0,0,0,0,0,0,0,0,0,0,0,0,0,0,0,0,0,0,3.8158,3.8159,0,3.8212,3.8212,3.8213,3.8082,3.8078,3.8074,3.807,3.8128,3.8133,3.8138,0,0,0,0,0,0,0,0,0,0,0,0,0,3.7947,3.7951,3.8158,3.8159,3.816,3.8212,3.8212,3.8213,3.8083,3.8078,3.8073,3.8068,3.8126,3.8132,3.8139,0,0,0,0,0,0,0,0,0,0,0,0,0,3.8024,3.7953,3.8158,3.8101,3.8096,3.8212,3.8213,3.8213,3.8084,3.8078,3.8072,3.8066,3.8124,3.8131,3.8139,3.8313,0,0,3.8164,3.8168,0,0,0,0,0,0,0,0,3.8019,3.8031,3.8109,3.8105,3.81,3.8134,3.8159,3.8247,3.8086,3.8089,3.807,3.8063,3.8135,3.8142,3.8165,3.8316,3.8318,3.8165,3.817,3.8173,3.8175,0,0,0,0,0,0,0,3.8014,3.8028,3.8179,3.811,3.8105,3.8074,3.8078,3.8175,3.8146,3.8088,3.8079,3.8087,3.8131,3.8158,3.8166,3.8319,3.8165,3.8172,3.8177,3.818,3.8617,3.8624,0,0,0,0,0,0,3.8016,3.8025,3.8178,3.8181,3.8044,3.8083,3.8087,3.813,3.8145,3.8141,3.8092,3.8081,3.8147,3.8156,3.8167,3.8373,3.8173,3.8181,3.8185,3.861,3.8619,3.8626,0,0,0,0,0,0,3.8012,3.8031,3.8176,3.8101,3.8117,3.8093,3.8142,3.8134,3.816,3.8148,3.8142,3.8124,3.8143,3.8156,3.8278,3.8373,3.8184,3.8192,3.8602,3.8613,3.8622,3.8786,0,0,0,0,0,0,3.8006,3.803,3.8095,3.8103,3.8121,3.8285,3.8147,3.8139,3.8174,3.816,3.8176,3.8173,3.8139,3.8267,3.8286,3.8381,3.8198,3.8594,3.8607,3.8619,3.8772,3.88,3.8825,0,0,0,0,0,3.7999,3.8139,3.8099,3.8118,3.8202,3.8291,3.8301,3.8258,3.8182,3.8248,3.824,3.8173,3.836,3.828,3.8301,3.84,3.8588,3.8603,3.8618,3.876,3.8795,3.8824,0,0,0,0,0,0,3.8143,3.8139,3.8094,3.8241,3.8267,3.8269,3.835,3.8296,3.8345,3.833,3.8275,3.828,3.8413,3.8418,3.833,3.857,3.8461,3.8481,3.8562,3.8594,3.862,3.8617,3.8205,0,0,0,0,0,3.8192,3.8264,3.8257,3.8387,3.8402,3.8375,3.8412,3.8376,3.8402,3.8412,3.8413,3.8441,3.8506,3.855,3.8609,3.8772,3.8774,3.885,3.8876,3.8898,3.8916,3.9004,3.9038,3.8676,3.8676,3.8676,0,0,3.8294,3.83,3.8349,3.8416,3.8432,3.8509,3.8385,3.8471,3.8528,3.8426,3.8541,3.8544,3.8571,3.8715,3.8778,3.8723,3.9017,3.8917,3.8935,3.8941,3.9024,3.9058,3.9089,3.8686,3.8684,3.8683,0,0,3.8518,3.853,3.864,3.8659,3.8686,3.8666,3.8693,3.8703,3.8701,3.8816,3.8741,3.8809,3.8921,3.8945,3.8972,3.9207,3.9148,3.9228,3.9366,3.9453,3.9481,3.9507,3.9592,3.9623,3.9246,3.9247,3.9247,0,3.8642,3.8754,3.8704,3.8796,3.8829,3.8739,3.8851,3.8872,3.8917,3.8942,3.888,3.9021,3.9033,3.9182,3.9239,3.9263,3.9293,3.9226,3.9481,3.9506,3.9529,3.961,3.9642,3.9256,3.9255,3.9254,3.9253,0,3.8905,3.8984,3.907,3.9116,3.9158,3.926,3.9227,3.9275,3.9237,3.9225,3.9344,3.9356,3.9417,3.9449,3.9412,3.9593,3.9559,3.949,3.938,3.9574,3.9649,3.968,3.927,3.9267,3.9264,3.9261,0,0,3.9222,3.9239,3.9272,3.9292,3.9315,3.9376,3.9475,3.9533,3.9577,3.9611,3.9694,3.9792,3.9729,3.9759,3.9724,3.98,3.9988,3.9722,3.9722,3.9772,4.0191,4.0243,4.028,3.9948,3.9954,3.9959,4.0189,0,3.9445,3.9614,3.9573,3.974,3.9814,3.973,3.9816,3.9841,3.9833,3.9895,3.9885,3.9957,3.9867,3.9885,3.9956,3.995,4.0072,3.9933,4.0026,4.003,4.0023,4.0319,4.0374,4.0591,4.0218,4.0223,4.0226,0,3.9728,3.9773,3.9948,3.9961,3.999,4.0068,4.012,4.018,4.0206,4.0195,4.023,4.0181,4.0279,4.0168,4.0304,4.0211,4.0247,4.025,4.0257,4.0265,4.0141,4.0336,4.0659,4.0692,4.0272,4.0268,4.0265,0,3.9944,4.0048,4.0167,4.0187,4.0204,4.0261,4.0271,4.0291,4.033,4.0375,4.04,4.0457,4.0488,4.0534,4.0501,4.0423,4.0644,4.0529,4.0639,4.064,4.069,4.0687,4.1024,4.0712,4.0711,4.071,4.071,0,4.0198,4.0309,4.0264,4.0338,4.046,4.0412,4.0534,4.0535,4.0554,4.0627,4.0558,4.0628,4.058,4.0647,4.0622,4.074,4.0755,4.0749,4.0742,4.0756,4.0757,4.0779,4.0764,4.0719,4.0717,4.0715,4.0714,0,4.046,4.0434,4.0558,4.0565,4.0569,4.0659,4.0665,4.0733,4.072,4.0813,4.0832,4.0813,4.0887,4.0859,4.0939,4.0923,4.1074,4.1046,4.1065,4.1058,4.117,4.116,4.1534,4.1581,4.1237,4.124,4.1243,0,4.0624,4.0708,4.0723,4.0767,4.0782,4.0853,4.0892,4.0848,4.0892,4.093,4.0995,4.1063,4.1116,4.124,4.1233,4.1294,4.1268,4.1395,4.1277,4.1289,4.1271,4.1267,4.1276,4.1419,4.1423,4.1426,4.1428,0,4.092,4.0903,4.0962,4.1017,4.1066,4.1107,4.1143,4.1183,4.1141,4.1195,4.127,4.1311,4.1393,4.1463,4.1518,4.1528,4.1473,4.1466,4.1494,4.151,4.1519,4.1517,4.113,4.1457,4.1454,4.1452,4.1451,4.145,4.1138,4.1209,4.1232,4.13,4.1322,4.1357,4.1423,4.1418,4.148,4.1543,4.1513,4.1602,4.1627,4.1695,4.1715,4.1784,4.1734,4.1776,4.1787,4.1798,4.1813,4.1507,4.1793,4.1792,4.1792,4.1791,4.179,0,4.1431,4.1442,4.1505,4.1557,4.1611,4.1553,4.159,4.164,4.1718,4.1746,4.18,4.1887,4.1955,4.1954,4.2017,4.2073,4.2049,4.2091,4.2087,4.2091,4.1853,4.1822,4.2109,4.2109,4.2109,4.2109,4.2109,4.2109,4.159,4.1707,4.1694,4.1822,4.1831,4.1917,4.1943,4.1976,4.1998,4.2099,4.2155,4.2154,4.2171,4.2235,4.2295,4.2293,4.232,4.2372,4.2361,4.2139,4.2107,4.2077,4.2048,4.2378,4.2379,4.2594,4.2596,4.2597]},{"header":{"parameterUnit":"m.s-1","parameterCategory":1,"la1":30.2991,"la2":30.254,"lo1":-89.0895,"lo2":-89.0444,"dy":0.0017,"dx":0.0017,"nx":28,"ny":28,"refTime":"2023-10-13T09:00:00:Z","depth":0,"parameterNumber":3,"parameterNumberName":"V-component_of_WINDS"},"data":[0,0,0,0,0,0,0,0,0,0,0,0,0,0,0,0,0,0,0,0,0,0,0,0,0,0,0,0,0,0,0,0,0,0,0,0,0,0,0,0,0,0,0,0,0,0,0,0,0,0,0,0,0,0,0,0,0,0,-0.5256,-0.5255,0,-0.5156,-0.5154,-0.5153,-0.5106,-0.5106,-0.5106,-0.5106,-0.5001,-0.4998,-0.4995,0,0,0,0,0,0,0,0,0,0,0,0,0,-0.5405,-0.5403,-0.5256,-0.5255,-0.5254,-0.5156,-0.5154,-0.5153,-0.5106,-0.5106,-0.5106,-0.5106,-0.5002,-0.4999,-0.4995,0,0,0,0,0,0,0,0,0,0,0,0,0,-0.5326,-0.5402,-0.5256,-0.5219,-0.5214,-0.5156,-0.5154,-0.5153,-0.5106,-0.5106,-0.5106,-0.5106,-0.5003,-0.4999,-0.4995,-0.4966,0,0,-0.4982,-0.498,0,0,0,0,0,0,0,0,-0.5331,-0.5321,-0.5225,-0.5221,-0.5216,-0.5144,-0.5168,-0.509,-0.5106,-0.5147,-0.5106,-0.5106,-0.5048,-0.504,-0.5021,-0.4961,-0.4957,-0.4981,-0.4979,-0.4977,-0.4976,0,0,0,0,0,0,0,-0.5336,-0.5325,-0.5216,-0.5224,-0.5218,-0.5206,-0.5195,-0.5153,-0.5098,-0.5143,-0.514,-0.5129,-0.5046,-0.5025,-0.5018,-0.4955,-0.4981,-0.4978,-0.4975,-0.4973,-0.4866,-0.4866,0,0,0,0,0,0,-0.5348,-0.533,-0.5219,-0.5213,-0.5275,-0.5203,-0.5191,-0.5167,-0.5099,-0.5088,-0.5129,-0.5127,-0.5033,-0.5023,-0.5014,-0.4976,-0.4977,-0.4973,-0.497,-0.4867,-0.4866,-0.4866,0,0,0,0,0,0,-0.5352,-0.5339,-0.5224,-0.5271,-0.5255,-0.52,-0.5174,-0.5165,-0.5144,-0.5087,-0.5077,-0.5118,-0.5032,-0.502,-0.4979,-0.4972,-0.4971,-0.4967,-0.4867,-0.4867,-0.4866,-0.49,0,0,0,0,0,0,-0.5356,-0.5341,-0.5329,-0.5271,-0.5253,-0.519,-0.5173,-0.5163,-0.5137,-0.5134,-0.5075,-0.5065,-0.5032,-0.4985,-0.4974,-0.4966,-0.4964,-0.4867,-0.4867,-0.4866,-0.4899,-0.4901,-0.4902,0,0,0,0,0,-0.5362,-0.5342,-0.5329,-0.5316,-0.5238,-0.519,-0.5179,-0.5142,-0.5137,-0.5125,-0.5089,-0.5067,-0.4975,-0.4981,-0.4969,-0.4959,-0.4868,-0.4867,-0.4866,-0.4898,-0.49,-0.4902,0,0,0,0,0,0,-0.5401,-0.5334,-0.5319,-0.528,-0.5241,-0.5182,-0.5166,-0.5145,-0.5106,-0.5105,-0.5059,-0.5046,-0.5008,-0.4979,-0.4988,-0.4928,-0.4919,-0.4916,-0.4948,-0.4949,-0.4951,-0.4958,-0.496,0,0,0,0,0,-0.5405,-0.5373,-0.5316,-0.5287,-0.5268,-0.5221,-0.5198,-0.5173,-0.513,-0.5114,-0.5074,-0.5033,-0.4995,-0.497,-0.4932,-0.4895,-0.4881,-0.4882,-0.4883,-0.4885,-0.4883,-0.4861,-0.486,-0.4864,-0.4864,-0.4864,0,0,-0.5413,-0.5373,-0.5355,-0.5294,-0.5261,-0.5227,-0.5207,-0.5172,-0.5147,-0.5108,-0.5066,-0.5036,-0.4987,-0.4948,-0.4928,-0.4922,-0.4879,-0.4884,-0.4886,-0.4882,-0.486,-0.486,-0.4859,-0.4864,-0.4864,-0.4864,0,0,-0.5411,-0.5377,-0.535,-0.5317,-0.5268,-0.5236,-0.523,-0.5174,-0.5153,-0.511,-0.508,-0.5049,-0.4984,-0.4951,-0.4925,-0.4911,-0.489,-0.49,-0.4907,-0.4887,-0.4886,-0.4886,-0.488,-0.4879,-0.4898,-0.4898,-0.4898,0,-0.5427,-0.5376,-0.5338,-0.5305,-0.5279,-0.5243,-0.5215,-0.5185,-0.5125,-0.5107,-0.5102,-0.502,-0.4985,-0.4937,-0.4934,-0.4914,-0.4905,-0.4906,-0.489,-0.4889,-0.4888,-0.4882,-0.488,-0.49,-0.4899,-0.4899,-0.4899,0,-0.5398,-0.5364,-0.5347,-0.5291,-0.5263,-0.5233,-0.5189,-0.5165,-0.5143,-0.5112,-0.5069,-0.5026,-0.4978,-0.4965,-0.4942,-0.4913,-0.4911,-0.4899,-0.4889,-0.4889,-0.4883,-0.4881,-0.4902,-0.4901,-0.4901,-0.49,0,0,-0.5417,-0.5341,-0.5336,-0.531,-0.5253,-0.5225,-0.5193,-0.5147,-0.5127,-0.5088,-0.5059,-0.5005,-0.4993,-0.4964,-0.4937,-0.4919,-0.4911,-0.4908,-0.4906,-0.491,-0.4877,-0.4886,-0.4885,-0.4897,-0.4896,-0.4895,-0.4881,0,-0.5407,-0.5348,-0.5313,-0.5268,-0.5235,-0.5201,-0.5173,-0.5135,-0.5105,-0.5073,-0.504,-0.5002,-0.4989,-0.4972,-0.4952,-0.4916,-0.4903,-0.4917,-0.4869,-0.4868,-0.4882,-0.4881,-0.4891,-0.4879,-0.4878,-0.4878,-0.4877,0,-0.5386,-0.5348,-0.5301,-0.5248,-0.5233,-0.5208,-0.5164,-0.5133,-0.5089,-0.5069,-0.5037,-0.501,-0.4974,-0.4968,-0.4918,-0.4928,-0.4906,-0.4886,-0.4884,-0.4878,-0.4872,-0.4874,-0.4875,-0.4873,-0.4873,-0.4873,-0.4874,0,-0.5404,-0.5341,-0.5305,-0.5284,-0.5221,-0.5205,-0.5178,-0.5134,-0.5109,-0.507,-0.5053,-0.501,-0.4986,-0.4953,-0.4915,-0.4914,-0.4868,-0.4859,-0.485,-0.4851,-0.4841,-0.4842,-0.4837,-0.4828,-0.4828,-0.4828,-0.4828,0,-0.5396,-0.5368,-0.5312,-0.5289,-0.5257,-0.5217,-0.5186,-0.5156,-0.5117,-0.5088,-0.5056,-0.5029,-0.4981,-0.4947,-0.4917,-0.488,-0.487,-0.4852,-0.4844,-0.4854,-0.4857,-0.4839,-0.4839,-0.4828,-0.4828,-0.4828,-0.4828,0,-0.541,-0.5372,-0.533,-0.5274,-0.526,-0.5238,-0.5191,-0.5167,-0.5136,-0.5099,-0.5088,-0.504,-0.4999,-0.4958,-0.4903,-0.4883,-0.4846,-0.4836,-0.4861,-0.4857,-0.485,-0.4851,-0.4833,-0.4829,-0.4824,-0.4824,-0.4824,0,-0.5407,-0.5385,-0.5328,-0.5306,-0.5281,-0.5246,-0.5221,-0.518,-0.5155,-0.5103,-0.5086,-0.5043,-0.5007,-0.4943,-0.4902,-0.486,-0.4848,-0.4845,-0.4842,-0.4853,-0.4848,-0.4849,-0.4847,-0.4846,-0.4847,-0.4847,-0.4847,0,-0.5406,-0.5388,-0.5353,-0.5311,-0.5282,-0.5247,-0.521,-0.5194,-0.5147,-0.5119,-0.5078,-0.505,-0.4994,-0.4952,-0.4905,-0.4877,-0.4854,-0.4849,-0.4844,-0.4854,-0.4869,-0.4861,-0.4865,-0.4849,-0.4849,-0.4849,-0.4848,-0.4848,-0.5411,-0.539,-0.5347,-0.5308,-0.5277,-0.5244,-0.5219,-0.5186,-0.5151,-0.5103,-0.5081,-0.5039,-0.4996,-0.493,-0.4903,-0.4869,-0.4863,-0.4856,-0.4854,-0.4853,-0.4856,-0.4876,-0.486,-0.486,-0.486,-0.486,-0.486,0,-0.5408,-0.5378,-0.5344,-0.5294,-0.5264,-0.5247,-0.5205,-0.5181,-0.5145,-0.5107,-0.5072,-0.5025,-0.4984,-0.494,-0.4896,-0.4878,-0.4866,-0.4868,-0.4868,-0.4862,-0.4864,-0.4872,-0.4878,-0.4878,-0.4878,-0.4878,-0.4878,-0.4878,-0.5402,-0.5366,-0.5343,-0.529,-0.526,-0.522,-0.5198,-0.5167,-0.5137,-0.5085,-0.5051,-0.5024,-0.4983,-0.4936,-0.4898,-0.4886,-0.4871,-0.4876,-0.4861,-0.4863,-0.4862,-0.4861,-0.4868,-0.4873,-0.4873,-0.4861,-0.4861,-0.4861]}]]